Weather Roundup
Issued by NWS

Home | Current Version | Previous Version | Graphics & Text | Print | Product List | Glossary Off
Versions: 1 2 3 4 5 6 7 8 9 10 11 12 13 14 15 16 17 18 19 20 21 22 23 24 25 26 27 28 29 30 31 32 33 34 35 36 37 38 39 40 41 42 43 44 45 46 47 48 49 50

000
NZUS93 KARX 272159
HRRWXR

CURRENT HOURLY OBSERVATIONS ACROSS
MUCH OF THE UPPER MISSISSIPPI VALLEY
NATIONAL WEATHER SERVICE LA CROSSE WI
500 PM CDT WED MAY 27 2015


...SOUTHEAST MINNESOTA...


CITY           SKY/WX    TMP DP  RH WIND       PRES   REMARKS
ROCHESTER      SUNNY     79  59  50 W9        30.02S
ROCHESTER/MAYO FAIR      80  54  40 W7G17     30.01R
WINONA         SUNNY     81  55  41 W6        29.98S
AUSTIN         SUNNY     79  55  44 SW9       30.01S
ALBERT LEA     MOSUNNY   82  52  34 W7        30.01S
DODGE CENTER   SUNNY     81  55  41 W10G16    30.01S
PRESTON        SUNNY     77  55  46 W9        30.03S
OWATONNA       SUNNY     81  54  39 W9        30.00S
FARIBAULT      MOSUNNY   81  57  44 SW7       29.99F
$$

...ELSEWHERE IN MINNESOTA...


CITY           SKY/WX    TMP DP  RH WIND       PRES   REMARKS
MINNEAPOLIS    MOSUNNY   84  52  33 W10G20    29.96S
INTNL FALLS    SUNNY     75  44  33 W15       29.95R
DULUTH         MOSUNNY   83  46  27 VRB7G20   29.92R
RED WING       SUNNY     82  54  36 W8        29.96S
REDWOOD FALLS  SUNNY     85  46  25 W6        29.97F
MANKATO        SUNNY     82  54  36 W10       29.99S
WORTHINGTON    MOSUNNY   82  45  26 W6        30.01S
FAIRMONT       SUNNY     84  46  26 NW10      30.00S
$$

...SOUTHWEST WISCONSIN...


CITY           SKY/WX    TMP DP  RH WIND       PRES   REMARKS
LA CROSSE      SUNNY     82  59  45 W13       29.98S
PRAIRIE DU CHI MOSUNNY   79  54  42 W9G17     30.02S
BOSCOBEL       MOSUNNY   79  59  50 SW8       30.02S
LONE ROCK      NOT AVBL
PLATTEVILLE    MOSUNNY   76  59  54 W9        30.05R
FORT MC COY    MOSUNNY   78  55  45 SW8       30.00S
VIROQUA        FAIR      76  58  54 SW15      30.03S
WIS DELLS      SUNNY     75  55  50 W9G17     30.02R
$$

...ELSEWHERE IN WISCONSIN...


CITY           SKY/WX    TMP DP  RH WIND       PRES   REMARKS
MILWAUKEE      MOSUNNY   69  56  62 E5        30.02R
MADISON        MOSUNNY   75  53  46 W9G25     30.02R
GREEN BAY      SUNNY     75  62  64 W14       29.95S
EAU CLAIRE     NOT AVBL
BLACK RVR FLS  FAIR      80  55  42 SW7       29.98S
MEDFORD        MOSUNNY   73  60  63 SW8       29.97S
WAUSAU         MOSUNNY   76  58  53 W13G18    29.95F
WIS RAPIDS     SUNNY     78  54  43 W10       29.99S
MARSHFIELD     SUNNY     76  58  53 W12       29.98S
RICE LAKE      MOSUNNY   79  56  44 W10       29.97S
$$

...NORTHEAST IOWA...


CITY           SKY/WX    TMP DP  RH WIND       PRES   REMARKS
DECORAH        MOSUNNY   77  57  50 SW7       30.02S
MASON CITY     SUNNY     82  53  36 W7        30.03S
CHARLES CITY   SUNNY     81  54  39 W12       30.03S
OELWEIN        SUNNY     79  59  50 SW10G16   30.04S
$$

...ELSEWHERE IN IOWA...


CITY           SKY/WX    TMP DP  RH WIND       PRES   REMARKS
DES MOINES     MOSUNNY   82  55  39 SW10      30.05F
IOWA CITY      MOSUNNY   79  55  43 W6        30.06S
FORT DODGE     MOSUNNY   81  57  44 SW7       30.04S
$$

...NORTHERN ILLINOIS...


CITY           SKY/WX    TMP DP  RH WIND       PRES   REMARKS
CHICAGO-OHARE  PTSUNNY   73  55  53 NW12      30.02S
CHICAGO-MIDWAY PTSUNNY   73  56  54 NW12      30.02S
MOLINE         MOSUNNY   79  56  45 NW7       30.05R
ROCKFORD       MOSUNNY   76  54  46 NW8       30.06R
PEORIA         MOSUNNY   81  56  42 N8        30.06S
$$

NOTE: "FAIR" INDICATES FEW OR NO CLOUDS BELOW 12,000 FEET WITH NO
SIGNIFICANT WEATHER AND/OR OBSTRUCTIONS TO VISIBILITY. WIND
SPEEDS ARE IN MILES-PER-HOUR.



USA.gov is the U.S. government's official web portal to all federal, state and local government web resources and services.